City Of Long Beach — WDC5007 — position and weather

sailwx.info

Track history (hours):
 
Tides and Currents Weather Stations Pressure Air Temp Water Temp Dewpoint Dewpoint Depression Visibility Wind Speed Wind Dir Waves Ship Positions

City Of Long Beach

Owner: Long Beach Anglers, Inc., Long Beach, CA. More information available from US FCC via Universal Licensing System and Coast Guard Vessel Documentation Center.

Last reported at 2017-Sep-24 17:29 UTC. Time now 2017-Sep-24 17:40 UTC.
Position N 33°34' W 118°08'.

Type: Ship. MMSI: 367034320.

Date/timePositionNaut miles runAvg speedWind from/ knotsBaromVisibWave heightAir tempDewpointWater temp
2017-Sep-24 17:29N 33°34' W 118°08'0 0.1
2017-Sep-24 16:14N 33°34' W 118°08'0 0.2
2017-Sep-24 16:00N 33°34' W 118°08'0 0.6
2017-Sep-24 15:30N 33°34' W 118°08'0 0.1
2017-Sep-24 15:00N 33°34' W 118°08'4 7.5
2017-Sep-24 14:30N 33°38' W 118°09'4 8.6
2017-Sep-24 14:00N 33°42' W 118°11'4 7.8
2017-Sep-24 13:30N 33°46' W 118°12'0 0.0
2017-Sep-24 01:11N 33°46' W 118°12'1 4.0
2017-Sep-24 01:00N 33°45' W 118°11'4 8.8
2017-Sep-24 00:30N 33°41' W 118°10'4 8.8
2017-Sep-24 00:00N 33°37' W 118°08'2 4.9
2017-Sep-23 23:30N 33°34' W 118°08'0 0.0
2017-Sep-23 23:00N 33°34' W 118°08'4 1.6
2017-Sep-23 20:41N 33°38' W 118°09'2 8.7
2017-Sep-23 20:27N 33°40' W 118°10'4 8.8
2017-Sep-23 20:00N 33°44' W 118°11'2 0.0
2017-Sep-21 20:47N 33°46' W 118°12'0 0.0
2017-Sep-21 20:26N 33°46' W 118°12'2 5.3
2017-Sep-21 20:00N 33°44' W 118°11'2 4.4
2017-Sep-21 19:30N 33°46' W 118°12'1 1.9
2017-Sep-21 18:54N 33°45' W 118°11'3 8.6
2017-Sep-21 18:30N 33°41' W 118°11'3 3.5
2017-Sep-21 17:37N 33°38' W 118°13'0 0.1
2017-Sep-21 17:30N 33°39' W 118°13'1 1.3
2017-Sep-21 17:00N 33°38' W 118°12'0 0.9
2017-Sep-21 16:29N 33°38' W 118°13'1 1.3
2017-Sep-21 16:00N 33°38' W 118°13'1 1.1
2017-Sep-21 15:28N 33°38' W 118°13'1 2.2
2017-Sep-21 15:00N 33°39' W 118°13'3 5.3
2017-Sep-21 14:23N 33°41' W 118°11'3 7.3
2017-Sep-21 13:59N 33°44' W 118°08'3 5.9
2017-Sep-21 13:30N 33°45' W 118°11'1 0.0
2017-Sep-20 19:34N 33°46' W 118°12'0 2.2
2017-Sep-20 19:30N 33°46' W 118°12'4 7.9
2017-Sep-20 19:00N 33°42' W 118°12'4 8.0
2017-Sep-20 18:30N 33°38' W 118°13'1 2.6
2017-Sep-20 18:00N 33°39' W 118°13'2 1.6
2017-Sep-20 17:03N 33°38' W 118°13'0 0.2
2017-Sep-20 17:00N 33°38' W 118°13'1 1.1
2017-Sep-20 16:30N 33°38' W 118°13'0 0.5
2017-Sep-20 15:44N 33°38' W 118°14'1 3.4
2017-Sep-20 15:30N 33°39' W 118°13'2 3.1
2017-Sep-20 14:56N 33°41' W 118°12'4 4.7
2017-Sep-20 14:00N 33°44' W 118°09'3 6.4
2017-Sep-20 13:29N 33°46' W 118°12'0 0.0
2017-Sep-20 01:04N 33°45' W 118°12'1 7.6
2017-Sep-20 00:56N 33°45' W 118°11'4 9.1
2017-Sep-20 00:30N 33°41' W 118°10'7 2.2
2017-Sep-19 21:19N 33°34' W 118°08'3 7.6
2017-Sep-19 20:54N 33°37' W 118°08'4 8.1
2017-Sep-19 20:27N 33°41' W 118°08'3 6.0
2017-Sep-19 20:00N 33°44' W 118°08'4 7.2
2017-Sep-19 19:30N 33°46' W 118°12'0 0.2
2017-Sep-19 19:00N 33°46' W 118°12'4 8.1
2017-Sep-19 18:28N 33°41' W 118°11'4 8.7
2017-Sep-19 17:58N 33°37' W 118°10'1 0.2
2017-Sep-19 14:43N 33°37' W 118°09'6 8.8
2017-Sep-19 14:01N 33°43' W 118°11'0 9.1
2017-Sep-19 13:59N 33°43' W 118°11'3 5.4
2017-Sep-19 13:29N 33°46' W 118°12'0 0.0
2017-Sep-19 01:22N 33°46' W 118°12'1 1.1
2017-Sep-19 00:50N 33°45' W 118°11'3 8.4
2017-Sep-19 00:26N 33°42' W 118°11'4 8.5
2017-Sep-18 23:57N 33°38' W 118°10'3 5.9
2017-Sep-18 23:30N 33°35' W 118°10'1 1.0
2017-Sep-18 22:59N 33°35' W 118°09'2 0.9
2017-Sep-18 21:01N 33°34' W 118°08'2 5.9
2017-Sep-18 20:38N 33°36' W 118°09'1 9.2
2017-Sep-18 20:30N 33°37' W 118°09'5 9.1
2017-Sep-18 19:59N 33°42' W 118°11'4 8.0
2017-Sep-18 19:30N 33°46' W 118°12'0 0.1
2017-Sep-18 19:00N 33°46' W 118°12'4 7.3
2017-Sep-18 18:29N 33°42' W 118°11'4 8.7
2017-Sep-18 18:00N 33°38' W 118°10'2 4.9
2017-Sep-18 17:29N 33°35' W 118°10'0 0.7
2017-Sep-18 16:51N 33°35' W 118°09'2 1.9
2017-Sep-18 15:58N 33°34' W 118°08'0 0.1
2017-Sep-18 15:01N 33°34' W 118°08'0 7.4
2017-Sep-18 14:59N 33°34' W 118°08'4 8.8
2017-Sep-18 14:30N 33°38' W 118°09'5 8.7
2017-Sep-18 13:58N 33°43' W 118°11'3 6.1
2017-Sep-18 13:30N 33°46' W 118°12'0 0.0
2017-Sep-18 01:28N 33°46' W 118°12'1 1.8
2017-Sep-18 01:00N 33°45' W 118°11'5 8.7
2017-Sep-18 00:29N 33°41' W 118°10'5 8.1
2017-Sep-17 23:52N 33°36' W 118°10'0 0.8
2017-Sep-17 23:22N 33°35' W 118°10'1 0.5
2017-Sep-17 22:21N 33°35' W 118°09'0 1.1
2017-Sep-17 21:53N 33°36' W 118°09'1 0.9
2017-Sep-17 20:46N 33°37' W 118°10'2 9.3
2017-Sep-17 20:31N 33°39' W 118°10'5 9.0
2017-Sep-17 20:01N 33°43' W 118°11'2 4.5
2017-Sep-17 19:29N 33°46' W 118°12'2 3.0
2017-Sep-17 18:59N 33°44' W 118°11'5 1.2
2017-Sep-17 14:54N 33°40' W 118°08'4 8.6
2017-Sep-17 14:28N 33°43' W 118°08'2 3.1
2017-Sep-17 13:59N 33°44' W 118°10'2 4.4
2017-Sep-17 13:29N 33°46' W 118°12'0 0.0
2017-Sep-17 01:22N 33°46' W 118°12'1 2.4
2017-Sep-17 01:00N 33°45' W 118°11'4 8.6
2017-Sep-17 00:30N 33°41' W 118°10'6 3.4
2017-Sep-16 22:49N 33°35' W 118°10'1 0.5
2017-Sep-16 20:46N 33°36' W 118°09'2 9.1
2017-Sep-16 20:30N 33°38' W 118°10'5 8.9
2017-Sep-16 20:00N 33°43' W 118°11'3 6.4
2017-Sep-16 19:30N 33°46' W 118°12'1 2.4
2017-Sep-16 18:58N 33°45' W 118°11'4 8.8
2017-Sep-16 18:30N 33°41' W 118°10'4 8.8
2017-Sep-16 18:00N 33°36' W 118°10'1 1.1
2017-Sep-16 17:03N 33°35' W 118°10'4 1.5
2017-Sep-16 14:15N 33°39' W 118°10'5 8.8
2017-Sep-16 13:42N 33°44' W 118°11'2 5.1
2017-Sep-16 13:23N 33°46' W 118°12'0 0.0
2017-Sep-16 01:04N 33°46' W 118°12'0 4.9
2017-Sep-16 01:00N 33°45' W 118°12'4 8.1
2017-Sep-16 00:30N 33°41' W 118°11'5 9.2
2017-Sep-15 23:59N 33°38' W 118°15'1 1.5
2017-Sep-15 23:17N 33°37' W 118°16'0 0.6
2017-Sep-15 22:49N 33°37' W 118°16'1 1.0
2017-Sep-15 21:37N 33°36' W 118°16'2 3.3
2017-Sep-15 21:09N 33°37' W 118°15'1 8.5
2017-Sep-15 20:59N 33°38' W 118°14'2 4.1
2017-Sep-15 20:28N 33°38' W 118°12'3 7.4
2017-Sep-15 20:00N 33°42' W 118°11'4 8.0
2017-Sep-15 19:30N 33°46' W 118°12'1 2.3
2017-Sep-15 18:58N 33°45' W 118°11'4 9.0
2017-Sep-15 18:30N 33°40' W 118°10'4 8.9
2017-Sep-15 18:00N 33°36' W 118°09'2 1.0
2017-Sep-15 15:42N 33°36' W 118°06'0 1.6
2017-Sep-15 15:27N 33°37' W 118°06'2 3.8
2017-Sep-15 14:50N 33°39' W 118°08'4 8.9
2017-Sep-15 14:26N 33°42' W 118°08'1 3.1
2017-Sep-15 14:00N 33°43' W 118°09'3 6.8
2017-Sep-15 13:30N 33°46' W 118°12'0 0.0
2017-Sep-15 00:47N 33°46' W 118°12'2 6.5
2017-Sep-15 00:30N 33°44' W 118°11'5 9.3
2017-Sep-15 00:00N 33°42' W 118°16'3 4.0
2017-Sep-14 23:15N 33°43' W 118°20'0 0.0
2017-Sep-14 23:00N 33°43' W 118°20'0 0.0
2017-Sep-14 22:29N 33°43' W 118°20'0 0.0
2017-Sep-14 21:55N 33°43' W 118°20'0 0.0
2017-Sep-14 21:29N 33°43' W 118°20'1 1.1
2017-Sep-14 21:00N 33°43' W 118°19'1 1.9
2017-Sep-14 20:29N 33°42' W 118°18'4 7.9
2017-Sep-14 20:00N 33°43' W 118°13'3 6.4
2017-Sep-14 19:30N 33°46' W 118°12'0 0.5
2017-Sep-14 18:59N 33°46' W 118°12'4 7.3
2017-Sep-14 18:30N 33°42' W 118°11'3 5.8
2017-Sep-14 18:00N 33°39' W 118°12'3 5.2
2017-Sep-14 17:30N 33°40' W 118°15'  
Track history (hours):
 
Tides and Currents Weather Stations Pressure Air Temp Water Temp Dewpoint Dewpoint Depression Visibility Wind Speed Wind Dir Waves Ship Positions

City Of Long Beach

Owner: Long Beach Anglers, Inc., Long Beach, CA. More information available from US FCC via Universal Licensing System and Coast Guard Vessel Documentation Center.

Last reported at 2017-Sep-24 17:29 UTC. Time now 2017-Sep-24 17:40 UTC.
Position N 33°34' W 118°08'.

Type: Ship. MMSI: 367034320.

Date/timePositionNaut miles runAvg speedWind from/ knotsBaromVisibWave heightAir tempDewpointWater temp
2017-Sep-24 17:29N 33°34' W 118°08'0 0.1
2017-Sep-24 16:14N 33°34' W 118°08'0 0.2
2017-Sep-24 16:00N 33°34' W 118°08'0 0.6
2017-Sep-24 15:30N 33°34' W 118°08'0 0.1
2017-Sep-24 15:00N 33°34' W 118°08'4 7.5
2017-Sep-24 14:30N 33°38' W 118°09'4 8.6
2017-Sep-24 14:00N 33°42' W 118°11'4 7.8
2017-Sep-24 13:30N 33°46' W 118°12'0 0.0
2017-Sep-24 01:11N 33°46' W 118°12'1 4.0
2017-Sep-24 01:00N 33°45' W 118°11'4 8.8
2017-Sep-24 00:30N 33°41' W 118°10'4 8.8
2017-Sep-24 00:00N 33°37' W 118°08'2 4.9
2017-Sep-23 23:30N 33°34' W 118°08'0 0.0
2017-Sep-23 23:00N 33°34' W 118°08'4 1.6
2017-Sep-23 20:41N 33°38' W 118°09'2 8.7
2017-Sep-23 20:27N 33°40' W 118°10'4 8.8
2017-Sep-23 20:00N 33°44' W 118°11'2 0.0
2017-Sep-21 20:47N 33°46' W 118°12'0 0.0
2017-Sep-21 20:26N 33°46' W 118°12'2 5.3
2017-Sep-21 20:00N 33°44' W 118°11'2 4.4
2017-Sep-21 19:30N 33°46' W 118°12'1 1.9
2017-Sep-21 18:54N 33°45' W 118°11'3 8.6
2017-Sep-21 18:30N 33°41' W 118°11'3 3.5
2017-Sep-21 17:37N 33°38' W 118°13'0 0.1
2017-Sep-21 17:30N 33°39' W 118°13'1 1.3
2017-Sep-21 17:00N 33°38' W 118°12'0 0.9
2017-Sep-21 16:29N 33°38' W 118°13'1 1.3
2017-Sep-21 16:00N 33°38' W 118°13'1 1.1
2017-Sep-21 15:28N 33°38' W 118°13'1 2.2
2017-Sep-21 15:00N 33°39' W 118°13'3 5.3
2017-Sep-21 14:23N 33°41' W 118°11'3 7.3
2017-Sep-21 13:59N 33°44' W 118°08'3 5.9
2017-Sep-21 13:30N 33°45' W 118°11'1 0.0
2017-Sep-20 19:34N 33°46' W 118°12'0 2.2
2017-Sep-20 19:30N 33°46' W 118°12'4 7.9
2017-Sep-20 19:00N 33°42' W 118°12'4 8.0
2017-Sep-20 18:30N 33°38' W 118°13'1 2.6
2017-Sep-20 18:00N 33°39' W 118°13'2 1.6
2017-Sep-20 17:03N 33°38' W 118°13'0 0.2
2017-Sep-20 17:00N 33°38' W 118°13'1 1.1
2017-Sep-20 16:30N 33°38' W 118°13'0 0.5
2017-Sep-20 15:44N 33°38' W 118°14'1 3.4
2017-Sep-20 15:30N 33°39' W 118°13'2 3.1
2017-Sep-20 14:56N 33°41' W 118°12'4 4.7
2017-Sep-20 14:00N 33°44' W 118°09'3 6.4
2017-Sep-20 13:29N 33°46' W 118°12'0 0.0
2017-Sep-20 01:04N 33°45' W 118°12'1 7.6
2017-Sep-20 00:56N 33°45' W 118°11'4 9.1
2017-Sep-20 00:30N 33°41' W 118°10'7 2.2
2017-Sep-19 21:19N 33°34' W 118°08'3 7.6
2017-Sep-19 20:54N 33°37' W 118°08'4 8.1
2017-Sep-19 20:27N 33°41' W 118°08'3 6.0
2017-Sep-19 20:00N 33°44' W 118°08'4 7.2
2017-Sep-19 19:30N 33°46' W 118°12'0 0.2
2017-Sep-19 19:00N 33°46' W 118°12'4 8.1
2017-Sep-19 18:28N 33°41' W 118°11'4 8.7
2017-Sep-19 17:58N 33°37' W 118°10'1 0.2
2017-Sep-19 14:43N 33°37' W 118°09'6 8.8
2017-Sep-19 14:01N 33°43' W 118°11'0 9.1
2017-Sep-19 13:59N 33°43' W 118°11'3 5.4
2017-Sep-19 13:29N 33°46' W 118°12'0 0.0
2017-Sep-19 01:22N 33°46' W 118°12'1 1.1
2017-Sep-19 00:50N 33°45' W 118°11'3 8.4
2017-Sep-19 00:26N 33°42' W 118°11'4 8.5
2017-Sep-18 23:57N 33°38' W 118°10'3 5.9
2017-Sep-18 23:30N 33°35' W 118°10'1 1.0
2017-Sep-18 22:59N 33°35' W 118°09'2 0.9
2017-Sep-18 21:01N 33°34' W 118°08'2 5.9
2017-Sep-18 20:38N 33°36' W 118°09'1 9.2
2017-Sep-18 20:30N 33°37' W 118°09'5 9.1
2017-Sep-18 19:59N 33°42' W 118°11'4 8.0
2017-Sep-18 19:30N 33°46' W 118°12'0 0.1
2017-Sep-18 19:00N 33°46' W 118°12'4 7.3
2017-Sep-18 18:29N 33°42' W 118°11'4 8.7
2017-Sep-18 18:00N 33°38' W 118°10'2 4.9
2017-Sep-18 17:29N 33°35' W 118°10'0 0.7
2017-Sep-18 16:51N 33°35' W 118°09'2 1.9
2017-Sep-18 15:58N 33°34' W 118°08'0 0.1
2017-Sep-18 15:01N 33°34' W 118°08'0 7.4
2017-Sep-18 14:59N 33°34' W 118°08'4 8.8
2017-Sep-18 14:30N 33°38' W 118°09'5 8.7
2017-Sep-18 13:58N 33°43' W 118°11'3 6.1
2017-Sep-18 13:30N 33°46' W 118°12'0 0.0
2017-Sep-18 01:28N 33°46' W 118°12'1 1.8
2017-Sep-18 01:00N 33°45' W 118°11'5 8.7
2017-Sep-18 00:29N 33°41' W 118°10'5 8.1
2017-Sep-17 23:52N 33°36' W 118°10'0 0.8
2017-Sep-17 23:22N 33°35' W 118°10'1 0.5
2017-Sep-17 22:21N 33°35' W 118°09'0 1.1
2017-Sep-17 21:53N 33°36' W 118°09'1 0.9
2017-Sep-17 20:46N 33°37' W 118°10'2 9.3
2017-Sep-17 20:31N 33°39' W 118°10'5 9.0
2017-Sep-17 20:01N 33°43' W 118°11'2 4.5
2017-Sep-17 19:29N 33°46' W 118°12'2 3.0
2017-Sep-17 18:59N 33°44' W 118°11'5 1.2
2017-Sep-17 14:54N 33°40' W 118°08'4 8.6
2017-Sep-17 14:28N 33°43' W 118°08'2 3.1
2017-Sep-17 13:59N 33°44' W 118°10'2 4.4
2017-Sep-17 13:29N 33°46' W 118°12'0 0.0
2017-Sep-17 01:22N 33°46' W 118°12'1 2.4
2017-Sep-17 01:00N 33°45' W 118°11'4 8.6
2017-Sep-17 00:30N 33°41' W 118°10'6 3.4
2017-Sep-16 22:49N 33°35' W 118°10'1 0.5
2017-Sep-16 20:46N 33°36' W 118°09'2 9.1
2017-Sep-16 20:30N 33°38' W 118°10'5 8.9
2017-Sep-16 20:00N 33°43' W 118°11'3 6.4
2017-Sep-16 19:30N 33°46' W 118°12'1 2.4
2017-Sep-16 18:58N 33°45' W 118°11'4 8.8
2017-Sep-16 18:30N 33°41' W 118°10'4 8.8
2017-Sep-16 18:00N 33°36' W 118°10'1 1.1
2017-Sep-16 17:03N 33°35' W 118°10'4 1.5
2017-Sep-16 14:15N 33°39' W 118°10'5 8.8
2017-Sep-16 13:42N 33°44' W 118°11'2 5.1
2017-Sep-16 13:23N 33°46' W 118°12'0 0.0
2017-Sep-16 01:04N 33°46' W 118°12'0 4.9
2017-Sep-16 01:00N 33°45' W 118°12'4 8.1
2017-Sep-16 00:30N 33°41' W 118°11'5 9.2
2017-Sep-15 23:59N 33°38' W 118°15'1 1.5
2017-Sep-15 23:17N 33°37' W 118°16'0 0.6
2017-Sep-15 22:49N 33°37' W 118°16'1 1.0
2017-Sep-15 21:37N 33°36' W 118°16'2 3.3
2017-Sep-15 21:09N 33°37' W 118°15'1 8.5
2017-Sep-15 20:59N 33°38' W 118°14'2 4.1
2017-Sep-15 20:28N 33°38' W 118°12'3 7.4
2017-Sep-15 20:00N 33°42' W 118°11'4 8.0
2017-Sep-15 19:30N 33°46' W 118°12'1 2.3
2017-Sep-15 18:58N 33°45' W 118°11'4 9.0
2017-Sep-15 18:30N 33°40' W 118°10'4 8.9
2017-Sep-15 18:00N 33°36' W 118°09'2 1.0
2017-Sep-15 15:42N 33°36' W 118°06'0 1.6
2017-Sep-15 15:27N 33°37' W 118°06'2 3.8
2017-Sep-15 14:50N 33°39' W 118°08'4 8.9
2017-Sep-15 14:26N 33°42' W 118°08'1 3.1
2017-Sep-15 14:00N 33°43' W 118°09'3 6.8
2017-Sep-15 13:30N 33°46' W 118°12'0 0.0
2017-Sep-15 00:47N 33°46' W 118°12'2 6.5
2017-Sep-15 00:30N 33°44' W 118°11'5 9.3
2017-Sep-15 00:00N 33°42' W 118°16'3 4.0
2017-Sep-14 23:15N 33°43' W 118°20'0 0.0
2017-Sep-14 23:00N 33°43' W 118°20'0 0.0
2017-Sep-14 22:29N 33°43' W 118°20'0 0.0
2017-Sep-14 21:55N 33°43' W 118°20'0 0.0
2017-Sep-14 21:29N 33°43' W 118°20'1 1.1
2017-Sep-14 21:00N 33°43' W 118°19'1 1.9
2017-Sep-14 20:29N 33°42' W 118°18'4 7.9
2017-Sep-14 20:00N 33°43' W 118°13'3 6.4
2017-Sep-14 19:30N 33°46' W 118°12'0 0.5
2017-Sep-14 18:59N 33°46' W 118°12'4 7.3
2017-Sep-14 18:30N 33°42' W 118°11'3 5.8
2017-Sep-14 18:00N 33°39' W 118°12'3 5.2
2017-Sep-14 17:30N 33°40' W 118°15'  

Dump ship's entire track history